Simultaneous Nadir Overpasses (SNOs) Predictions

Prediction of SNOs between GOES-15 and TERRA Satellite Orbit:

Table of predicted SNOs for the next 14.0 days since TLE Epoch: 11/16/2013
Index Date Time (GOES-15) GOES-15 Lat,Lon TERRA Lat,Lon Distance(km) Time Diff (sec)
1 11/16/2013 19:24:56 -0.24,-135.35 -0.51,-134.16 135.50 80
2 11/17/2013 07:49:00 0.22,-135.41 -0.60,-139.35 447.26 80
3 11/18/2013 19:12:44 -0.24,-135.38 -1.14,-131.20 475.49 80
4 11/19/2013 07:36:48 0.22,-135.44 0.04,-136.39 107.46 80
5 11/21/2013 07:21:55 0.22,-135.46 0.63,-133.42 231.97 80
6 11/21/2013 19:45:50 -0.20,-135.41 0.48,-138.57 359.26 80
7 11/23/2013 19:33:37 -0.20,-135.43 -0.13,-135.60 20.38 80
8 11/25/2013 19:18:45 -0.20,-135.45 -0.82,-132.65 318.56 80
9 11/26/2013 07:42:48 0.17,-135.51 -0.32,-137.83 264.17 80
10 11/28/2013 07:27:55 0.18,-135.52 0.33,-134.87 73.82 80




NCC Satellite Simultaneous Nadir Overpasses (SNOs) Prediction Service
